Time,TemperatureF,DewpointF,PressureIn,WindDirection,WindDirectionDegrees,WindSpeedMPH,WindSpeedGustMPH,Humidity,HourlyPrecipIn,Conditions,Clouds,dailyrainin,SolarRadiationWatts/m^2,SoftwareType,DateUTC
2013-01-29 00:02:00,10.0,7.0,-100.00,NE,45,0.0,0.0,86,0.00,,,0.00,0.000000,,2013-01-29 08:02:00,
2013-01-29 00:11:00,10.0,7.0,-100.00,NE,45,0.0,0.0,86,0.00,,,0.00,0.000000,,2013-01-29 08:11:00,
2013-01-29 00:21:00,10.0,7.0,-100.00,NE,45,0.0,0.0,86,0.00,,,0.00,0.000000,,2013-01-29 08:21:00,
2013-01-29 00:31:00,10.0,7.0,-100.00,NE,45,0.0,0.0,86,0.00,,,0.00,0.000000,,2013-01-29 08:31:00,
2013-01-29 01:01:00,10.0,6.0,-100.00,NNW,339,0.0,0.0,84,0.00,,,0.00,0.000000,,2013-01-29 09:01:00,
2013-01-29 01:11:00,10.0,6.0,-100.00,NNW,339,0.0,0.0,84,0.00,,,0.00,0.000000,,2013-01-29 09:11:00,
2013-01-29 01:21:00,10.0,6.0,-100.00,NNW,339,0.0,0.0,84,0.00,,,0.00,0.000000,,2013-01-29 09:21:00,
2013-01-29 01:31:00,10.0,6.0,-100.00,NNW,339,0.0,0.0,84,0.00,,,0.00,0.000000,,2013-01-29 09:31:00,
2013-01-29 02:01:00,10.0,6.0,-100.00,North,356,0.0,3.0,83,0.00,,,0.00,0.000000,,2013-01-29 10:01:00,
2013-01-29 02:11:00,10.0,6.0,-100.00,North,356,0.0,3.0,83,0.00,,,0.00,0.000000,,2013-01-29 10:11:00,
2013-01-29 02:21:00,10.0,6.0,-100.00,North,356,0.0,3.0,83,0.00,,,0.00,0.000000,,2013-01-29 10:21:00,
2013-01-29 02:32:00,10.0,6.0,-100.00,North,356,0.0,3.0,83,0.00,,,0.00,0.000000,,2013-01-29 10:32:00,
2013-01-29 03:01:00,10.0,6.0,-100.00,NNW,344,0.0,0.0,85,0.00,,,0.00,0.000000,,2013-01-29 11:01:00,
2013-01-29 03:11:00,10.0,6.0,-100.00,NNW,344,0.0,0.0,85,0.00,,,0.00,0.000000,,2013-01-29 11:11:00,
2013-01-29 03:21:00,10.0,6.0,-100.00,NNW,344,0.0,0.0,85,0.00,,,0.00,0.000000,,2013-01-29 11:21:00,
2013-01-29 03:31:00,10.0,6.0,-100.00,NNW,344,0.0,0.0,85,0.00,,,0.00,0.000000,,2013-01-29 11:31:00,
2013-01-29 03:52:00,11.0,7.0,-100.00,NNW,328,0.0,0.0,83,0.00,,,0.00,0.000000,,2013-01-29 11:52:00,
2013-01-29 04:02:00,11.0,7.0,-100.00,NNW,328,0.0,0.0,83,0.00,,,0.00,0.000000,,2013-01-29 12:02:00,
2013-01-29 04:12:00,11.0,7.0,-100.00,NNW,328,0.0,0.0,83,0.00,,,0.00,0.000000,,2013-01-29 12:12:00,
2013-01-29 04:22:00,11.0,7.0,-100.00,NNW,328,0.0,0.0,83,0.00,,,0.00,0.000000,,2013-01-29 12:22:00,
2013-01-29 04:32:00,11.0,7.0,-100.00,NNW,328,0.0,0.0,83,0.00,,,0.00,0.000000,,2013-01-29 12:32:00,
2013-01-29 05:02:00,11.0,7.0,-100.00,NNW,341,0.0,0.0,84,0.00,,,0.00,0.000000,,2013-01-29 13:02:00,
2013-01-29 05:11:00,11.0,7.0,-100.00,NNW,341,0.0,0.0,84,0.00,,,0.00,0.000000,,2013-01-29 13:11:00,
2013-01-29 05:22:00,11.0,7.0,-100.00,NNW,341,0.0,0.0,84,0.00,,,0.00,0.000000,,2013-01-29 13:22:00,
2013-01-29 05:31:00,11.0,7.0,-100.00,NNW,341,0.0,0.0,84,0.00,,,0.00,0.000000,,2013-01-29 13:31:00,
2013-01-29 06:02:00,11.0,8.0,-100.00,NNW,346,0.0,0.0,88,0.00,,,0.00,0.000000,,2013-01-29 14:02:00,
2013-01-29 06:12:00,11.0,8.0,-100.00,NNW,346,0.0,0.0,88,0.00,,,0.00,0.000000,,2013-01-29 14:12:00,
2013-01-29 06:21:00,11.0,8.0,-100.00,NNW,346,0.0,0.0,88,0.00,,,0.00,0.000000,,2013-01-29 14:21:00,
2013-01-29 06:32:00,11.0,8.0,-100.00,NNW,346,0.0,0.0,88,0.00,,,0.00,0.000000,,2013-01-29 14:32:00,
2013-01-29 07:02:00,12.0,9.0,-100.00,North,350,0.0,0.0,89,0.00,,,0.00,0.000000,,2013-01-29 15:02:00,
2013-01-29 07:12:00,12.0,9.0,-100.00,North,350,0.0,0.0,89,0.00,,,0.00,0.000000,,2013-01-29 15:12:00,
2013-01-29 07:22:00,12.0,9.0,-100.00,North,350,0.0,0.0,89,0.00,,,0.00,0.000000,,2013-01-29 15:22:00,
2013-01-29 07:32:00,12.0,9.0,-100.00,North,350,0.0,0.0,89,0.00,,,0.00,0.000000,,2013-01-29 15:32:00,
2013-01-29 08:02:00,16.0,13.0,-100.00,NNW,336,0.0,0.0,88,0.00,,,0.00,13.000000,,2013-01-29 16:02:00,
2013-01-29 08:12:00,16.0,13.0,-100.00,NNW,336,0.0,0.0,88,0.00,,,0.00,13.000000,,2013-01-29 16:12:00,
2013-01-29 08:22:00,16.0,13.0,-100.00,NNW,336,0.0,0.0,88,0.00,,,0.00,13.000000,,2013-01-29 16:22:00,
2013-01-29 08:32:00,16.0,13.0,-100.00,NNW,336,0.0,0.0,88,0.00,,,0.00,13.000000,,2013-01-29 16:32:00,
2013-01-29 09:03:00,28.0,21.0,-100.00,SSE,166,0.0,0.0,74,0.00,,,0.00,108.000000,,2013-01-29 17:03:00,
2013-01-29 09:12:00,28.0,21.0,-100.00,SSE,166,0.0,0.0,74,0.00,,,0.00,108.000000,,2013-01-29 17:12:00,
2013-01-29 09:21:00,28.0,21.0,-100.00,SSE,166,0.0,0.0,74,0.00,,,0.00,108.000000,,2013-01-29 17:21:00,
2013-01-29 09:32:00,28.0,21.0,-100.00,SSE,166,0.0,0.0,74,0.00,,,0.00,108.000000,,2013-01-29 17:32:00,
2013-01-29 10:03:00,46.0,22.0,-100.00,WNW,290,0.0,6.0,38,0.01,,,0.01,313.000000,,2013-01-29 18:03:00,
2013-01-29 11:02:00,48.0,22.0,-100.00,West,274,0.0,12.0,35,-99.99,,,0.05,669.000000,,2013-01-29 19:02:00,
2013-01-29 12:02:00,46.0,22.0,-100.00,West,270,2.0,11.0,39,-99.99,,,0.07,599.000000,,2013-01-29 20:02:00,
2013-01-29 12:32:00,46.0,22.0,-100.00,West,270,2.0,11.0,39,-99.99,,,0.07,599.000000,,2013-01-29 20:32:00,
2013-01-29 13:02:00,49.0,25.0,-100.00,NW,305,2.0,12.0,38,0.00,,,0.07,512.000000,,2013-01-29 21:02:00,
2013-01-29 13:12:00,49.0,25.0,-100.00,NW,305,2.0,12.0,38,0.00,,,0.07,512.000000,,2013-01-29 21:12:00,
2013-01-29 13:22:00,49.0,25.0,-100.00,NW,305,2.0,12.0,38,0.00,,,0.07,512.000000,,2013-01-29 21:22:00,
2013-01-29 13:32:00,49.0,25.0,-100.00,NW,305,2.0,12.0,38,0.00,,,0.07,512.000000,,2013-01-29 21:32:00,
2013-01-29 14:02:00,51.0,24.0,-100.00,North,1,6.0,13.0,34,0.10,,,0.17,773.000000,,2013-01-29 22:02:00,
2013-01-29 14:12:00,51.0,24.0,-100.00,North,1,6.0,13.0,34,0.10,,,0.17,773.000000,,2013-01-29 22:12:00,
2013-01-29 14:21:00,51.0,24.0,-100.00,North,1,6.0,13.0,34,0.10,,,0.17,773.000000,,2013-01-29 22:21:00,
2013-01-29 14:32:00,51.0,24.0,-100.00,North,1,6.0,13.0,34,0.10,,,0.17,773.000000,,2013-01-29 22:32:00,
2013-01-29 15:02:00,51.0,22.0,-100.00,NW,318,6.0,21.0,32,0.16,,,0.33,669.000000,,2013-01-29 23:02:00,
2013-01-29 15:11:00,51.0,22.0,-100.00,NW,318,6.0,21.0,32,0.16,,,0.33,669.000000,,2013-01-29 23:11:00,
2013-01-29 15:22:00,51.0,22.0,-100.00,NW,318,6.0,21.0,32,0.16,,,0.33,669.000000,,2013-01-29 23:22:00,
2013-01-29 15:32:00,51.0,22.0,-100.00,NW,318,6.0,21.0,32,0.16,,,0.33,669.000000,,2013-01-29 23:32:00,
2013-01-29 16:02:00,52.0,21.0,-100.00,NNW,327,1.0,14.0,29,0.06,,,0.39,426.000000,,2013-01-30 00:02:00,
2013-01-29 16:32:00,52.0,21.0,-100.00,NNW,327,1.0,14.0,29,0.06,,,0.39,426.000000,,2013-01-30 00:32:00,
2013-01-29 17:01:00,41.0,24.0,-100.00,WSW,255,1.0,8.0,51,-99.99,,,0.40,182.000000,,2013-01-30 01:01:00,
2013-01-29 17:11:00,41.0,24.0,-100.00,WSW,255,1.0,8.0,51,-99.99,,,0.40,182.000000,,2013-01-30 01:11:00,
2013-01-29 17:22:00,41.0,24.0,-100.00,WSW,255,1.0,8.0,51,-99.99,,,0.40,182.000000,,2013-01-30 01:22:00,
2013-01-29 17:31:00,41.0,24.0,-100.00,WSW,255,1.0,8.0,51,-99.99,,,0.40,182.000000,,2013-01-30 01:31:00,
2013-01-29 18:02:00,40.0,24.0,-100.00,NNW,335,2.0,7.0,53,0.00,,,0.40,13.000000,,2013-01-30 02:02:00,
2013-01-29 18:12:00,40.0,24.0,-100.00,NNW,335,2.0,7.0,53,0.00,,,0.40,13.000000,,2013-01-30 02:12:00,
2013-01-29 18:21:00,40.0,24.0,-100.00,NNW,335,2.0,7.0,53,0.00,,,0.40,13.000000,,2013-01-30 02:21:00,
2013-01-29 18:33:00,40.0,24.0,-100.00,NNW,335,2.0,7.0,53,0.00,,,0.40,13.000000,,2013-01-30 02:33:00,
2013-01-29 19:02:00,42.0,21.0,-100.00,NNW,344,5.0,14.0,43,0.00,,,-99.99,0.000000,,2013-01-30 03:02:00,
2013-01-29 19:11:00,42.0,21.0,-100.00,NNW,344,5.0,14.0,43,0.00,,,-99.99,0.000000,,2013-01-30 03:11:00,
2013-01-29 19:22:00,42.0,21.0,-100.00,NNW,344,5.0,14.0,43,0.00,,,-99.99,0.000000,,2013-01-30 03:22:00,
2013-01-29 19:31:00,42.0,21.0,-100.00,NNW,344,5.0,14.0,43,0.00,,,-99.99,0.000000,,2013-01-30 03:31:00,
2013-01-29 20:02:00,39.0,20.0,-100.00,North,5,1.0,13.0,47,0.00,,,0.40,0.000000,,2013-01-30 04:02:00,
2013-01-29 20:11:00,39.0,20.0,-100.00,North,5,1.0,13.0,47,0.00,,,0.40,0.000000,,2013-01-30 04:11:00,
2013-01-29 20:21:00,39.0,20.0,-100.00,North,5,1.0,13.0,47,0.00,,,0.40,0.000000,,2013-01-30 04:21:00,
2013-01-29 20:31:00,39.0,20.0,-100.00,North,5,1.0,13.0,47,0.00,,,0.40,0.000000,,2013-01-30 04:31:00,
2013-01-29 21:03:00,39.0,20.0,-100.00,North,356,3.0,9.0,47,0.00,,,0.40,0.000000,,2013-01-30 05:03:00,
2013-01-29 21:11:00,39.0,20.0,-100.00,North,356,3.0,9.0,47,0.00,,,0.40,0.000000,,2013-01-30 05:11:00,
2013-01-29 21:22:00,39.0,20.0,-100.00,North,356,3.0,9.0,47,0.00,,,0.40,0.000000,,2013-01-30 05:22:00,
2013-01-29 21:32:00,39.0,20.0,-100.00,North,356,3.0,9.0,47,0.00,,,0.40,0.000000,,2013-01-30 05:32:00,
2013-01-29 21:52:00,38.0,20.0,-100.00,North,359,3.0,11.0,47,0.00,,,0.40,0.000000,,2013-01-30 05:52:00,
2013-01-29 22:02:00,38.0,20.0,-100.00,North,359,3.0,11.0,47,0.00,,,0.40,0.000000,,2013-01-30 06:02:00,
2013-01-29 22:11:00,38.0,20.0,-100.00,North,359,3.0,11.0,47,0.00,,,0.40,0.000000,,2013-01-30 06:11:00,
2013-01-29 22:21:00,38.0,20.0,-100.00,North,359,3.0,11.0,47,0.00,,,0.40,0.000000,,2013-01-30 06:21:00,
2013-01-29 22:31:00,38.0,20.0,-100.00,North,359,3.0,11.0,47,0.00,,,0.40,0.000000,,2013-01-30 06:31:00,
2013-01-29 23:01:00,37.0,21.0,-100.00,North,6,5.0,13.0,51,0.00,,,0.40,0.000000,,2013-01-30 07:01:00,
2013-01-29 23:11:00,37.0,21.0,-100.00,North,6,5.0,13.0,51,0.00,,,0.40,0.000000,,2013-01-30 07:11:00,
2013-01-29 23:21:00,37.0,21.0,-100.00,North,6,5.0,13.0,51,0.00,,,0.40,0.000000,,2013-01-30 07:21:00,
2013-01-29 23:31:00,37.0,21.0,-100.00,North,6,5.0,13.0,51,0.00,,,0.40,0.000000,,2013-01-30 07:31:00,